This demonstration page uses our WeatherBlox Daily Observations layout. Learn more.

Left ArrowRight Arrow

36.17497, -115.13722

Hourly Observations for April 20, 2020

Temp ( °F °C ) Dew Point ( °F °C ) Humidity (%) Winds ( mph kmh ) Pressure ( in mb ) Visibility ( mi km ) Precip ( " mm )
12:53 am 00:53 Clear 64 17.8 26 -3.3 24 24 NW 5 7 29.88 1012 10 16 N/A
1:53 am 01:53 Clear 63 17.2 26 -3.3 25 25 E 5 7 29.89 1012 10 16 N/A
2:53 am 02:53 Clear 63 17.2 26 -3.3 25 25 N N/A 29.89 1012 10 16 N/A
3:53 am 03:53 Clear 62 16.7 27 -2.8 26 26 ESE 3 6 29.91 1013 10 16 N/A
4:53 am 04:53 Clear 59 15 28 -2.2 31 31 WNW 6 9 29.93 1013 10 16 N/A
5:53 am 05:53 Clear 60 15.6 29 -1.7 31 31 N N/A 29.93 1014 10 16 N/A
6:53 am 06:53 Sunny 60 15.6 32 undefined 35 35 NNW 7 11 29.96 1015 10 16 N/A
7:53 am 07:53 Sunny 64 17.8 36 2.2 35 35 N N/A 29.98 1015 10 16 N/A
8:53 am 08:53 Sunny 67 19.4 37 2.8 33 33 N N/A 29.97 1015 10 16 N/A
9:53 am 09:53 Sunny 70 21.1 37 2.8 30 30 N N/A 29.98 1015 10 16 N/A
10:53 am 10:53 Sunny 71 21.7 38 3.3 30 30 N N/A 29.98 1015 10 16 N/A
11:53 am 11:53 Sunny 74 23.3 38 3.3 27 27 NNE 3 6 29.96 1015 10 16 N/A
12:53 pm 12:53 Sunny 75 23.9 38 3.3 26 26 undefined N/A 29.94 1014 10 16 N/A
1:53 pm 13:53 Sunny 77 25 34 1.1 21 21 S 8 13 29.92 1013 10 16 N/A
2:53 pm 14:53 Sunny 77 25 34 1.1 21 21 SSE 6 9 29.88 1012 10 16 N/A
3:53 pm 15:53 Sunny 76 24.4 35 1.7 23 23 VRB 6 9 29.86 1011 10 16 N/A
4:18 pm 16:18 Mostly Cloudy with Nearby Thunderstorms 77 25 36 2.2 23 23 W 17 28 29.74 1007 10 16 N/A
4:27 pm 16:27 Windy with Storms Likely 73 22.8 41 5 32 32 WSW 22 35 29.77 1008 10 16 0.00 0.00
4:53 pm 16:53 Cloudy with Nearby Thunderstorms 69 20.6 46 7.8 44 44 NW 12 19 29.90 1013 10 16 0.00 0.00
5:28 pm 17:28 Partly Cloudy 70 21.1 43 6.1 38 38 NNW 17 28 29.80 1009 10 16 N/A
5:53 pm 17:53 Cloudy 70 21.1 45 7.2 41 41 NE 10 17 29.91 1013 10 16 N/A
6:53 pm 18:53 Cloudy with Light Rain 69 20.6 46 7.8 44 44 ESE 9 15 29.92 1013 10 16 0.00 0.00
7:53 pm 19:53 Clear 67 19.4 44 6.7 44 44 NNE 3 6 29.92 1013 10 16 0.00 0.00
8:53 pm 20:53 Clear 67 19.4 44 6.7 44 44 N 6 9 29.94 1014 10 16 N/A
9:53 pm 21:53 Clear 65 18.3 44 6.7 47 47 NW 7 11 29.94 1014 10 16 N/A
10:53 pm 22:53 Mostly Cloudy 64 17.8 43 6.1 46 46 NW 5 7 29.93 1014 10 16 N/A
11:53 pm 23:53 Clear 62 16.7 43 6.1 50 50 WNW 8 13 29.94 1014 10 16 N/A

Powered by AerisWeather